| time (UTC) | temp F | wind direction | speed MPH | gust MPH | rain 1hr in | rain 24hr in | rain mn in | humidity % | barometer mb |
| 20260508190430 | 70 | 230 | 2.0 | 7.0 | 0.00 | 0.00 | 0.00 | 42 | 1015.8 |
| 20260508184927 | 70 | 234 | 4.0 | 11.0 | 0.00 | 0.00 | 0.00 | 42 | 1015.4 |
| 20260508183422 | 70 | 168 | 2.0 | 13.0 | 0.00 | 0.00 | 0.00 | 43 | 1015.2 |
| 20260508174926 | 71 | 238 | 4.0 | 12.0 | 0.00 | 0.00 | 0.00 | 43 | 1014.7 |
| 20260508171917 | 71 | 209 | 2.0 | 7.0 | 0.00 | 0.00 | 0.00 | 46 | 1014.4 |
| 20260508170415 | 71 | 193 | 2.0 | 7.0 | 0.00 | 0.00 | 0.00 | 47 | 1014.5 |
| 20260508164914 | 71 | 276 | 2.0 | 7.0 | 0.00 | 0.00 | 0.00 | 47 | 1014.2 |
| 20260508161916 | 71 | 162 | 2.0 | 10.0 | 0.00 | 0.00 | 0.00 | 46 | 1014.2 |
| 20260508160415 | 71 | 172 | 3.0 | 9.0 | 0.00 | 0.00 | 0.00 | 46 | 1014.2 |
| 20260508153413 | 71 | 217 | 2.0 | 6.0 | 0.00 | 0.00 | 0.00 | 46 | 1014.3 |
| 20260508151913 | 72 | 188 | 2.0 | 11.0 | 0.00 | 0.00 | 0.00 | 46 | 1014.2 |
| 20260508150413 | 72 | 140 | 2.0 | 13.0 | 0.00 | 0.00 | 0.00 | 46 | 1014.2 |
| 20260508143413 | 73 | 221 | 3.0 | 11.0 | 0.00 | 0.00 | 0.00 | 46 | 1014.0 |
| 20260508141919 | 73 | 226 | 2.0 | 14.0 | 0.00 | 0.00 | 0.00 | 47 | 1014.3 |
| 20260508134914 | 73 | 223 | 3.0 | 13.0 | 0.00 | 0.00 | 0.00 | 51 | 1014.5 |
| 20260508131913 | 73 | 106 | 3.0 | 9.0 | 0.00 | 0.00 | 0.00 | 48 | 1014.9 |
| 20260508130406 | 73 | 220 | 3.0 | 11.0 | 0.00 | 0.00 | 0.00 | 50 | 1015.1 |
| 20260508123420 | 72 | 275 | 4.0 | 12.0 | 0.00 | 0.00 | 0.00 | 45 | 1015.4 |
| 20260508121910 | 72 | 149 | 6.0 | 13.0 | 0.00 | 0.00 | 0.00 | 43 | 1016.0 |
| 20260508120412 | 72 | 237 | 5.0 | 14.0 | 0.00 | 0.00 | 0.00 | 42 | 1016.1 |
| 20260508113411 | 72 | 255 | 2.0 | 10.0 | 0.00 | 0.00 | 0.00 | 44 | 1016.0 |
| 20260508111910 | 71 | 128 | 3.0 | 11.0 | 0.00 | 0.00 | 0.00 | 45 | 1016.2 |
| 20260508110420 | 71 | 186 | 2.0 | 5.0 | 0.00 | 0.00 | 0.00 | 45 | 1016.6 |
| 20260508104909 | 71 | 224 | 2.0 | 7.0 | 0.00 | 0.00 | 0.00 | 46 | 1016.8 |
| 20260508101912 | 71 | 200 | 2.0 | 5.0 | 0.00 | 0.00 | 0.00 | 47 | 1017.1 |
| 20260508100408 | 71 | 217 | 2.0 | 6.0 | 0.00 | 0.00 | 0.00 | 48 | 1017.3 |
| 20260508094909 | 71 | 197 | 0.0 | 4.0 | 0.00 | 0.00 | 0.00 | 48 | 1018.0 |
| 20260508091915 | 71 | 152 | 2.0 | 9.0 | 0.00 | 0.00 | 0.00 | 51 | 1018.1 |
| 20260508090409 | 70 | 231 | 2.0 | 7.0 | 0.00 | 0.00 | 0.00 | 52 | 1018.2 |
| 20260508084908 | 69 | 197 | 2.0 | 7.0 | 0.00 | 0.00 | 0.00 | 52 | 1018.2 |
| 20260508083414 | 69 | 142 | 1.0 | 9.0 | 0.00 | 0.00 | 0.00 | 50 | 1018.4 |
| 20260508081915 | 69 | 258 | 1.0 | 7.0 | 0.00 | 0.00 | 0.00 | 49 | 1018.2 |
| 20260508080405 | 70 | 233 | 2.0 | 9.0 | 0.00 | 0.00 | 0.00 | 46 | 1018.3 |
| 20260508074903 | 69 | 238 | 1.0 | 6.0 | 0.00 | 0.00 | 0.00 | 45 | 1018.5 |
| 20260508073403 | 68 | 182 | 1.0 | 7.0 | 0.00 | 0.00 | 0.00 | 46 | 1018.5 |
| 20260508071907 | 67 | 237 | 2.0 | 7.0 | 0.00 | 0.00 | 0.00 | 46 | 1018.8 |
| 20260508070408 | 67 | 216 | 1.0 | 6.0 | 0.00 | 0.00 | 0.00 | 46 | 1019.1 |
| 20260508064902 | 68 | 255 | 2.0 | 5.0 | 0.00 | 0.00 | 0.00 | 43 | 1019.1 |
| 20260508063404 | 67 | 217 | 1.0 | 4.0 | 0.00 | 0.00 | 0.00 | 39 | 1018.8 |
| 20260508061905 | 68 | 219 | 2.0 | 4.0 | 0.00 | 0.00 | 0.00 | 38 | 1018.7 |
| 20260508060408 | 68 | 204 | 1.0 | 5.0 | 0.00 | 0.00 | 0.00 | 37 | 1018.3 |
| 20260508054905 | 68 | 252 | 0.0 | 2.0 | 0.00 | 0.00 | 0.00 | 40 | 1017.5 |
| 20260508053403 | 67 | 262 | 0.0 | 0.0 | 0.00 | 0.00 | 0.00 | 43 | 1017.2 |
| 20260508051903 | 67 | 271 | 0.0 | 0.0 | 0.00 | 0.00 | 0.00 | 45 | 1016.8 |
| 20260508050402 | 66 | 190 | 0.0 | 0.0 | 0.00 | 0.00 | 0.00 | 49 | 1016.6 |
| 20260508044855 | 66 | 190 | 0.0 | 2.0 | 0.00 | 0.00 | 0.00 | 47 | 1016.7 |
| 20260508043356 | 66 | 182 | 0.0 | 2.0 | 0.00 | 0.00 | 0.00 | 51 | 1016.8 |
| 20260508041857 | 65 | 120 | 0.0 | 2.0 | 0.00 | 0.00 | 0.00 | 53 | 1016.3 |
| 20260508040408 | 65 | 333 | 0.0 | 2.0 | 0.00 | 0.00 | 0.00 | 51 | 1016.1 |
| 20260508034902 | 65 | 0 | 0.0 | 0.0 | 0.00 | 0.00 | 0.00 | 52 | 1015.7 |
| 20260508033400 | 65 | 0 | 0.0 | 0.0 | 0.00 | 0.00 | 0.00 | 53 | 1015.7 |
| 20260508031901 | 65 | 0 | 0.0 | 2.0 | 0.00 | 0.00 | 0.00 | 52 | 1015.7 |
| 20260508030359 | 65 | 54 | 0.0 | 3.0 | 0.00 | 0.00 | 0.00 | 55 | 1015.7 |
| 20260508024855 | 65 | 351 | 1.0 | 2.0 | 0.00 | 0.00 | 0.00 | 54 | 1015.7 |
| 20260508023359 | 65 | 357 | 1.0 | 3.0 | 0.00 | 0.00 | 0.00 | 57 | 1015.9 |
| 20260508021901 | 65 | 316 | 0.0 | 2.0 | 0.00 | 0.00 | 0.00 | 57 | 1015.9 |
| 20260508020359 | 66 | 316 | 1.0 | 3.0 | 0.00 | 0.00 | 0.00 | 46 | 1016.0 |
| 20260508014859 | 67 | 264 | 2.0 | 4.0 | 0.00 | 0.00 | 0.00 | 40 | 1015.8 |
| 20260508013359 | 67 | 233 | 1.0 | 3.0 | 0.00 | 0.00 | 0.00 | 42 | 1016.1 |
| 20260508011905 | 65 | 226 | 0.0 | 0.0 | 0.00 | 0.00 | 0.00 | 53 | 1016.3 |
| 20260508010357 | 65 | 14 | 0.0 | 0.0 | 0.00 | 0.00 | 0.00 | 56 | 1016.5 |
| 20260508004905 | 65 | 0 | 0.0 | 0.0 | 0.00 | 0.00 | 0.00 | 54 | 1016.7 |
| 20260508003358 | 65 | 0 | 0.0 | 0.0 | 0.00 | 0.00 | 0.00 | 53 | 1016.5 |
| 20260508001925 | 65 | 350 | 0.0 | 0.0 | 0.00 | 0.00 | 0.00 | 53 | 1016.6 |
| 20260508000357 | 65 | 0 | 0.0 | 0.0 | 0.00 | 0.00 | 0.00 | 53 | 1016.6 |
| 20260507234916 | 65 | 298 | 0.0 | 2.0 | 0.00 | 0.00 | 0.00 | 52 | 1016.8 |
| 20260507233352 | 65 | 0 | 0.0 | 2.0 | 0.00 | 0.00 | 0.00 | 51 | 1017.1 |
| 20260507231904 | 65 | 343 | 0.0 | 0.0 | 0.00 | 0.00 | 0.00 | 51 | 1017.3 |
| 20260507230355 | 66 | 13 | 0.0 | 0.0 | 0.00 | 0.00 | 0.00 | 51 | 1017.1 |
| 20260507224859 | 66 | 0 | 0.0 | 2.0 | 0.00 | 0.00 | 0.00 | 50 | 1017.4 |
| 20260507223354 | 66 | 348 | 0.0 | 2.0 | 0.00 | 0.00 | 0.00 | 48 | 1017.4 |
| 20260507221850 | 66 | 338 | 2.0 | 3.0 | 0.00 | 0.00 | 0.00 | 49 | 1017.5 |
| 20260507220418 | 67 | 171 | 0.0 | 2.0 | 0.00 | 0.00 | 0.00 | 52 | 1017.6 |
| 20260507214851 | 67 | 243 | 0.0 | 2.0 | 0.00 | 0.00 | 0.00 | 50 | 1018.0 |
| 20260507213346 | 67 | 255 | 0.0 | 2.0 | 0.00 | 0.00 | 0.00 | 48 | 1018.0 |
| 20260507211847 | 67 | 258 | 0.0 | 2.0 | 0.00 | 0.00 | 0.00 | 47 | 1018.0 |
| 20260507210355 | 67 | 237 | 0.0 | 6.0 | 0.00 | 0.00 | 0.00 | 45 | 1018.1 |
| 20260507204852 | 68 | 209 | 2.0 | 5.0 | 0.00 | 0.00 | 0.00 | 40 | 1017.9 |
| 20260507203352 | 68 | 235 | 1.0 | 4.0 | 0.00 | 0.00 | 0.00 | 40 | 1018.2 |
| 20260507200358 | 68 | 0 | 0.0 | 2.0 | 0.00 | 0.00 | 0.00 | 48 | 1018.0 |
| 20260507194855 | 68 | 330 | 0.0 | 4.0 | 0.00 | 0.00 | 0.00 | 48 | 1018.1 |
| 20260507193350 | 68 | 293 | 1.0 | 3.0 | 0.00 | 0.00 | 0.00 | 48 | 1017.9 |